This is the latest recevied weather packets stored in our database for station/object KN4MGS. If no packets are shown the sender has not sent any weather packets the latest 10 day(s).
| Time | Temp. | Humidity | Pressure | Rain* | Wind** | Luminosity | Snow |
|---|---|---|---|---|---|---|---|
| 1777981513 | 10.56° C | 99% | 1020.6 hPa | 0 mm | - | 34 W/m² | - |
| 1777981210 | 10° C | 99% | 1020.5 hPa | 0 mm | - | 39 W/m² | - |
| 1777980906 | 8.89° C | 99% | 1020.3 hPa | 0 mm | - | 40 W/m² | - |
| 1777980602 | 8.89° C | 99% | 1020.3 hPa | 0 mm | - | 41 W/m² | - |
| 1777980299 | 8.33° C | 99% | 1020.4 hPa | 0 mm | - | 38 W/m² | - |
| 1777979996 | 8.33° C | 99% | 1020.4 hPa | 0 mm | - | 33 W/m² | - |
| 1777979690 | 7.78° C | 99% | 1020.2 hPa | 0 mm | - | 28 W/m² | - |
| 1777979387 | 7.78° C | 99% | 1020.4 hPa | 0 mm | - | 23 W/m² | - |
| 1777979084 | 7.78° C | 99% | 1020.4 hPa | 0 mm | - | 19 W/m² | - |
| 1777978780 | 7.78° C | 99% | 1020.3 hPa | 0 mm | - | 15 W/m² | - |
| 1777978477 | 7.78° C | 99% | 1020.2 hPa | 0 mm | - | 11 W/m² | - |
| 1777978173 | 7.78° C | 99% | 1020.2 hPa | 0 mm | - | 8 W/m² | - |
| 1777977871 | 7.78° C | 99% | 1020.1 hPa | 0 mm | - | 5 W/m² | - |
| 1777977567 | 7.78° C | 99% | 1020.4 hPa | 0 mm | - | 4 W/m² | - |
| 1777977265 | 7.78° C | 99% | 1020.1 hPa | 0 mm | - | 3 W/m² | - |
| 1777976961 | 7.78° C | 99% | 1020.1 hPa | 0 mm | - | 0 W/m² | - |
| 1777976658 | 7.78° C | 99% | 1020.3 hPa | 0 mm | - | 0 W/m² | - |
| 1777976355 | 7.78° C | 99% | 1020.1 hPa | 0 mm | - | 0 W/m² | - |
| 1777976049 | 7.78° C | 99% | 1020.1 hPa | 0 mm | - | 0 W/m² | - |
| 1777975745 | 7.78° C | 99% | 1020.1 hPa | 0 mm | - | 0 W/m² | - |
| 1777975442 | 7.78° C | 99% | 1020 hPa | 0 mm | - | 0 W/m² | - |
| 1777975137 | 8.33° C | 99% | 1019.7 hPa | 0 mm | - | 0 W/m² | - |
| 1777974835 | 7.78° C | 99% | 1020 hPa | 0 mm | - | 0 W/m² | - |
| 1777974531 | 8.33° C | 99% | 1019.9 hPa | 0 mm | - | 0 W/m² | - |
| 1777974228 | 8.33° C | 99% | 1019.9 hPa | 0 mm | - | 0 W/m² | - |
* Rain latest hour (hover to see other rain measurements)
** Current wind speed in m/s (hover to see current wind gust speed)